Home > Time Zones > World Clock > Weather > Germany > Ulm > Past weeks

Flag for Germany Weather past 2 weeks in Ulm, Baden-Württemberg, Germany

Now
52 °F

Passing clouds.


Feels Like: 47 °F
Forecast: 35 / 59 °F
Wind: 16 mph from East

Location: Laupheim Airport

Current Time: Apr 19, 2015 at 1:50:25 PM

Latest Report: Apr 19, 2015 at 1:20 PM


Visibility: N/A

Pressure: 30.07 "Hg

Humidity: 38%

Dew point: 27 °F

Location of UlmLocation

Historic Weather in Ulm — Graph

°F

Ulm temperature yesterday

Maximum temperature yesterday: 50 °F (at 4:20 PM)
Minimum temperature yesterday: 39 °F (at 5:20 AM)
Average temperature yesterday: 44 °F

Past Weeks' High & Low Weather Summary

 TemperatureHumidityPressure
High73 °F (Apr 15, 4:20 PM)100% (Apr 9, 6:20 AM)30.60 "Hg (Apr 9, 6:20 AM)
Low27 °F (Apr 7, 6:20 AM)17% (Apr 15, 5:00 PM)29.89 "Hg (Apr 4, 12:20 PM)
Average49 °F63%30.25 "Hg
* Reported Apr 4 12:20 PM — Apr 19 12:20 PM, Ulm, Weather by CustomWeather, © 2015

Note: Actual official high and low records may vary slightly from our data, if they occured in-between our weather recording intervals... More about our weather records

Advertising

Ulm weather history for previous 24 hours

 ConditionsComfort  
Time TempWeatherWind HumidityBarometerVisibility
12:20 PM
Sun, Apr 19
52 °FPassing clouds.16 mph44%30.07 "HgN/A
11:20 AM48 °FPassing clouds.20 mph50%30.09 "HgN/A
10:20 AM46 °FPassing clouds.17 mph50%30.09 "HgN/A
9:20 AM43 °FPassing clouds.13 mph61%30.09 "HgN/A
8:20 AM37 °FPassing clouds.9 mph75%30.09 "HgN/A
7:20 AM32 °FPassing clouds.8 mph87%30.09 "HgN/A
6:20 AM30 °FPassing clouds.8 mph86%30.09 "HgN/A
5:20 AM30 °FChilly.6 mph86%30.09 "HgN/A
4:20 AM32 °FChilly.5 mph80%30.12 "HgN/A
3:20 AM34 °FChilly.5 mph75%30.15 "HgN/A
2:20 AM34 °FChilly.9 mph81%30.15 "HgN/A
1:20 AM36 °FChilly.6 mph75%30.18 "HgN/A
12:20 AM37 °FChilly.6 mph70%30.18 "HgN/A
11:20 PM
Sat, Apr 18
39 °FChilly.5 mph65%30.18 "HgN/A
10:20 PM41 °FPassing clouds.6 mph61%30.18 "HgN/A
9:20 PM43 °FPassing clouds.6 mph57%30.18 "HgN/A
8:20 PM45 °FPassing clouds.6 mph49%30.18 "HgN/A
7:20 PM46 °FPassing clouds.10 mph50%30.18 "HgN/A
6:20 PM50 °FPassing clouds.8 mph40%30.18 "HgN/A
5:20 PM48 °FScattered clouds.14 mph46%30.18 "HgN/A
4:20 PM50 °FScattered clouds.8 mph40%30.18 "HgN/A
3:20 PM48 °FScattered clouds.12 mph46%30.18 "HgN/A
2:20 PM46 °FScattered clouds.13 mph46%30.21 "HgN/A
1:20 PM48 °FScattered clouds.12 mph50%30.21 "HgN/A
Weather by CustomWeather, © 2015

See weather overviewHow to use our weather pages